Regional Weather Roundup
Issued by NWS

Home | Current Version | Previous Version | Text Only | Print | Product List | Glossary On
Versions: 1 2 3 4 5 6 7 8 9 10 11 12 13 14 15 16 17 18 19 20 21 22 23 24 25 26
000
ASUS42 KKEY 192111
RWRKEY

FLORIDA REGIONAL WEATHER ROUNDUP FOR THE FLORIDA KEYS
NATIONAL WEATHER SERVICE KEY WEST FLORIDA
500 PM EDT THU APR 19 2018

...SOUTH FLORIDA AND THE KEYS...

CITY           SKY/WX    TMP DP  RH WIND       PRES   REMARKS
FORT MYERS     FAIR      84  62  47 NW14      30.07F
SW REGIONAL AP FAIR      82  61  48 W12       30.07S
NAPLES         FAIR      80  68  66 W15G21    30.07F
MIAMI          PTSUNNY   83  64  52 SE10      30.05F
WEST KENDALL   FAIR      84  62  47 SE9G20    30.05F
HOMESTEAD      FAIR      83  65  53 SE6       30.05F
MARATHON       FAIR      82  65  56 NE6       30.06F
KEY WEST INTL  FAIR      82  66  58 N6        30.08F

...INTERNATIONAL WEATHER...

CITY           SKY/WX    TMP DP  RH WIND       PRES   REMARKS
NASSAU BAHAMAS PTSUNNY   82  75  78 SE6       30.08S
CANCUN MEXICO  SUNNY     82  70  65 E12       30.05F
COZUMEL MEXICO MOSUNNY   86  72  62 SE8       30.02F HX  92

ADJACENT COASTAL WATERS...

STATION/POSITION TIME  SKY/WX   TEMP    WIND        PRES    WAVE
                                AIR SEA DIR/SP/G            HT/PER
                 (UTC)          (F)     (DEG/KT/KT) (MB)    (FT/S)
PULASKI SHOAL LI 2100            77      60/  5/  5 1018.6F
SAND KEY         2050            76                 1018.5F
SOMBRERO KEY     2050            77     320/  4/  5 1017.7F
LONG KEY         2100            79 79  170/  2/  2 1018.0F
MOLASSES REEF    2100            78 79  170/  3/  4 1018.6F
FOWEY ROCKS      2100            77 78  140/  8/ 10 1018.6F
Buoy 42078       2030               81                N/A     1/ 5
Buoy 42097       2100               80                N/A     2/ 5

$$




USA.gov is the U.S. government's official web portal to all federal, state and local government web resources and services.